This is the latest recevied weather packets stored in our database for station/object KB4MLW-13. If no packets are shown the sender has not sent any weather packets the latest 10 day(s).
| Time | Temp. | Humidity | Pressure | Rain* | Wind** | Luminosity | Snow |
|---|---|---|---|---|---|---|---|
| 1788199648 | 32.78° C | 65% | 1002.6 hPa | 0 mm | - | - | - |
| 1788199559 | 32.22° C | 67% | 1002.7 hPa | 0 mm | - | - | - |
| 1788199498 | 32.78° C | 64% | 1002.8 hPa | 0 mm | - | - | - |
| 1788199438 | 33.33° C | 62% | 1002.9 hPa | 0 mm | - | - | - |
| 1788199378 | 33.33° C | 62% | 1002.6 hPa | 0 mm | - | - | - |
| 1788199318 | 32.78° C | 62% | 1002.8 hPa | 0 mm | - | - | - |
| 1788199258 | 32.78° C | 65% | 1002.8 hPa | 0 mm | - | - | - |
| 1788199198 | 32.78° C | 67% | 1002.8 hPa | 0 mm | - | - | - |
| 1788199138 | 32.78° C | 69% | 1002.7 hPa | 0 mm | - | - | - |
| 1788199049 | 32.78° C | 64% | 1002.7 hPa | 0 mm | - | - | - |
| 1788198988 | 32.78° C | 64% | 1002.9 hPa | 0 mm | - | - | - |
| 1788198928 | 32.78° C | 65% | 1002.8 hPa | 0 mm | - | - | - |
| 1788198868 | 32.78° C | 62% | 1003 hPa | 0 mm | - | - | - |
| 1788198779 | 32.78° C | 63% | 1002.9 hPa | 0 mm | - | - | - |
| 1788198718 | 32.78° C | 62% | 1002.9 hPa | 0 mm | - | - | - |
| 1788198658 | 32.78° C | 64% | 1003 hPa | 0 mm | - | - | - |
| 1788198598 | 32.78° C | 63% | 1002.9 hPa | 0 mm | - | - | - |
| 1788198509 | 32.78° C | 62% | 1002.8 hPa | 0 mm | - | - | - |
| 1788198418 | 32.78° C | 63% | 1003 hPa | 0 mm | - | - | - |
| 1788198329 | 33.33° C | 62% | 1003 hPa | 0 mm | - | - | - |
| 1788198208 | 33.33° C | 61% | 1002.9 hPa | 0 mm | - | - | - |
| 1788198148 | 33.33° C | 66% | 1003.1 hPa | 0 mm | - | - | - |
| 1788198088 | 33.33° C | 65% | 1002.9 hPa | 0 mm | - | - | - |
| 1788197998 | 32.78° C | 64% | 1002.9 hPa | 0 mm | - | - | - |
| 1788197938 | 32.78° C | 62% | 1003.2 hPa | 0 mm | - | - | - |
* Rain latest hour (hover to see other rain measurements)
** Current wind speed in m/s (hover to see current wind gust speed)